Flag for Brazil Weather past 2 weeks in Campo Grande, Mato Grosso Do Sul, Brazil

Now
64 °F

Passing clouds.


Feels Like: 64 °F
Forecast: 68 / 80 °F
Wind: 1 mph from Southeast

Location: Campo Grande Aeroporto


UV Index: 5 (Moderate)

Visibility: N/A


Pressure: 30.01 "Hg

Humidity: 94%

Dew point: 63 °F

Location of Campo GrandeLocation

Historic Weather in Campo Grande

°F

Campo Grande temperature yesterday

Maximum temperature yesterday: 77 °F (at 11:00 AM)
Minimum temperature yesterday: 41 °F (at 12:00 PM)
Average temperature yesterday: 68 °F

Past Weeks' High & Low Weather Summary

 TemperatureHumidityPressure
High90 °F (Apr 8, 1:00 PM)100% (Apr 21, 8:00 PM)30.09 "Hg (Apr 21, 8:00 PM)
Low32 °F (Apr 21, 8:00 PM)17% (Apr 20, 3:00 PM)29.83 "Hg (Apr 9, 3:00 PM)
Average73 °F78%29.98 "Hg
* Reported Apr 8 3:00 AM — Apr 23 3:00 AM, Campo Grande, Weather by CustomWeather, © 2014

Note: Actual official high and low records may vary slightly from our data, if they occured in-between our weather recording intervals... More about our weather records

Advertising

Historic Weather Conditions — Data for Previous 24 hours

 ConditionsComfort  
Time TempWeatherWind HumidityBarometerVisibility
3:00 AM
Apr 23
64 °FPassing clouds.3 mph94%30.01 "HgN/A
2:00 AM66 °FPassing clouds.5 mph88%30.01 "HgN/A
1:00 AM66 °FPassing clouds.6 mph88%30.04 "HgN/A
12:05 AM66 °FPassing clouds.6 mph88%30.04 "HgN/A
12:00 AM66 °FPassing clouds.6 mph88%30.04 "HgN/A
11:00 PM
Apr 22
66 °FPassing clouds.5 mph88%30.04 "HgN/A
10:00 PM66 °FPassing clouds.3 mph88%30.04 "HgN/A
9:00 PM66 °FPassing clouds.5 mph88%30.04 "HgN/A
8:00 PM66 °FClear.5 mph94%30.01 "Hg10 mi
7:00 PM68 °FPassing clouds.5 mph88%29.98 "HgN/A
6:00 PM68 °FPassing clouds.2 mph83%29.95 "HgN/A
5:00 PM68 °FPassing clouds.7 mph88%29.95 "HgN/A
4:00 PM70 °FPassing clouds.13 mph78%29.92 "HgN/A
3:00 PM68 °FBroken clouds.15 mph88%29.98 "HgN/A
2:00 PMN/AThunderstorms.15 mphN/AN/A2 mi
1:00 PM72 °FThundershowers. Partly sunny.8 mph83%30.01 "HgN/A
12:00 PM41 °FScattered showers. Broken clouds.5 mph100%30.01 "HgN/A
11:00 AM77 °FBroken clouds.5 mph65%30.04 "HgN/A
10:00 AM73 °FScattered clouds.7 mph78%30.04 "HgN/A
9:00 AM73 °FScattered clouds.7 mph78%30.04 "HgN/A
8:00 AM72 °FBroken clouds.7 mph78%30.04 "HgN/A
7:00 AM70 °FBroken clouds.6 mph88%30.01 "HgN/A
6:00 AM68 °FBroken clouds.9 mph88%29.98 "HgN/A
5:00 AM68 °FSunny.8 mph88%29.95 "Hg10 mi
4:00 AM68 °FClear.6 mph88%29.95 "Hg10 mi
Weather by CustomWeather, © 2014

See weather overview